Vertical_Velocity
-0 4 -3 -1 1 0 -1 -2 0 1 0 2 2 -3 -1 1 1 0 2 -1 1 -0 2 1 0 1 -2 -0 -2 1 0 1 -2 3 -2 0 -0 -3 -0 2 2 2 5
2 2 -1 -2 0 3 1 -1 2 1 -1 -1 -0 2 -2 1 2 3 -1 -1 -1 -2 -0 -1 3 1 -4 0 2 -0 -1 -0 -1 -2 -2 -1 0 2 -2 -1 2 0 2
15 6 -1 -4 0 2 3 1 -1 -2 -0 2 2 2 2 1 2 -2 0 1 -0 -1 -1 -2 -2 2 6 -1 5 5 -1 -1 -2 -2 -1 0 -1 -1 1 -1 -1 2 3
-5 22 2 -4 -4 2 3 2 1 -0 -0 -1 1 0 -1 -2 -0 -2 -1 -0 2 0 0 -2 -2 -2 -4 -1 -6 3 3 -3 1 -0 -2 -2 1 -1 0 1 -1 3 -0
-4 -3 11 3 -2 1 0 2 1 -0 -0 -1 -2 -2 -2 -1 -3 1 -0 -1 1 -1 -2 1 -2 0 -2 -0 -1 1 -2 -0 1 -1 0 -2 0 0 -0 -0 -1 -2 -2
-2 -2 4 11 1 1 -2 2 -0 1 -0 -1 -0 -1 -1 -1 -1 -2 0 0 -1 -0 -1 -1 -1 -0 -0 1 -2 -1 -0 1 -2 -1 -2 0 -1 -1 0 -2 -2 -0 1
-1 -1 7 1 3 2 -1 2 3 2 1 1 0 -0 -2 -2 -0 -1 -1 -1 -1 -0 2 -1 -0 -1 -0 -1 0 0 -2 1 -1 -2 -0 -1 -1 0 -0 1 1 -3 -5
-2 1 5 3 3 0 2 3 3 3 1 1 0 1 1 -1 -0 0 1 -1 -2 -2 -0 -0 -1 1 -1 0 -2 0 -2 0 -1 -1 2 -2 -0 1 -2 -3 -1 -2 -2
-3 -4 7 3 1 1 1 2 3 2 2 1 -0 0 1 -0 -0 0 1 -1 0 -0 -0 0 -3 -2 -1 -1 1 -2 -2 -0 -1 -1 0 -1 0 -3 -1 2 -2 1 -1
-1 -2 -5 3 0 0 4 2 1 2 1 1 2 2 1 1 1 1 -0 -0 -1 -1 -1 -1 -1 0 -1 -2 -1 -1 -2 -2 -2 -0 -2 -1 -2 0 -0 -0 -0 1 1
1 1 0 -2 1 3 1 3 3 3 2 1 1 0 1 2 1 0 -0 -0 1 1 -0 0 -0 -1 -1 -0 -1 1 -2 -1 1 -2 1 2 -1 -2 1 1 1 -2 0
4 2 1 3 2 -0 3 3 3 3 3 1 1 1 0 -0 -0 -1 -1 -0 -0 -0 0 0 0 -0 -1 -2 -1 1 1 -3 0 0 -2 -1 -0 -2 -0 -2 2 -2 2
-0 2 -0 -1 2 2 0 -0 -1 -1 -1 0 -0 0 1 1 1 0 -0 -0 -2 -2 -2 -1 -2 -2 -1 -1 -1 -2 -0 -1 -1 -1 -1 -1 -0 1 -3 0 1 -1 1
-2 -0 0 1 -2 -2 -0 1 2 0 -1 -0 -1 -2 -1 -2 -1 0 1 1 -0 1 0 -1 -0 -1 -1 -1 -1 -1 -2 -1 -1 -1 0 1 1 1 -1 1 1 -0 1
1 0 -0 -0 0 -1 -1 -2 -2 0 1 1 -0 1 -0 -2 1 -1 -0 -1 -2 -0 0 -0 0 -0 -0 -1 -2 -1 -1 -1 -3 -2 -2 -1 0 -2 -1 -0 -1 -0 -1
6 -0 2 -1 -0 -0 1 -2 -3 -0 -1 -3 -3 -3 -1 -2 0 -0 1 -2 0 -0 -1 -1 -1 -1 -1 -2 -1 -1 -1 -1 -1 -1 -0 -1 -0 0 0 0 -0 2 1
0 -0 -3 -3 -2 -0 0 -1 0 -0 -1 -1 0 0 -0 -1 1 0 -0 -1 0 -0 -1 -1 -1 -0 -1 -2 -2 -2 -2 -1 -1 -1 -0 -1 -0 -0 -1 -0 -1 -1 -1
1 -2 -2 -3 -0 -1 1 1 -1 -3 -0 -1 -0 1 0 -0 1 0 -0 1 1 0 1 0 -0 -0 0 -1 -1 -2 -3 -2 -1 -1 -0 -0 -1 -0 0 0 2 -1 -1
-1 1 3 -2 -5 -1 5 8 3 -0 -3 -2 -0 1 2 1 0 -0 1 1 -0 -0 1 2 0 -1 2 1 1 -1 0 0 0 0 0 -0 -1 1 -1 5 -2 -2 -3
-1 0 -3 -2 -4 -4 1 3 0 1 -2 -2 -1 0 -0 1 0 1 1 2 -2 0 2 1 0 0 1 -0 0 0 0 0 -0 1 1 1 1 0 3 0 -0 -0 1
-2 -3 -0 -1 -2 -2 -0 -2 -2 -0 -0 -1 0 -0 1 -2 1 2 0 1 0 1 0 0 -0 0 0 -1 -1 -1 -2 -1 -1 -1 -1 -0 1 1 0 3 2 -3 1
-3 -2 -2 -2 -2 -0 -0 -2 -2 -2 -0 0 2 0 -1 -0 -3 1 2 2 1 1 1 2 1 1 1 -1 -0 -1 -0 0 -2 -2 -1 -1 -0 1 -1 -1 -1 2 -0
-2 -0 -1 -3 -3 -1 2 -1 -1 -1 -1 0 -1 0 -1 -4 3 -4 -0 -1 -0 1 0 -1 -1 -0 1 0 -0 -2 -2 -2 -3 -2 -1 -2 -1 -1 -1 0 0 -3 -0
-3 -2 -2 -2 -6 -1 -1 -1 0 1 -1 -3 -5 -4 -1 -4 -1 0 -0 -0 -1 -1 0 -0 -2 -1 -1 -3 -1 -1 -2 -2 -3 1 -2 -0 -2 -1 -1 -0 -1 -0 -0
-1 -0 -2 -2 -3 -1 -3 -0 -0 1 -1 -0 -2 -4 -2 -1 -4 4 -3 -2 -0 1 3 0 2 1 -3 -4 1 -2 -3 -2 -0 -2 -0 1 -0 1 2 2 1 -0 1
-2 -2 -0 -0 -1 -1 -1 -1 -0 0 -0 -2 0 -1 1 0 0 1 4 -3 -3 1 1 2 3 4 2 0 0 -3 -1 -0 0 -0 1 0 0 1 1 1 1 0 0
Height
1475 1474 1476 1479 1480 1482 1486 1490 1492 1495 1497 1499 1499 1500 1502 1504 1506 1507 1510 1512 1514 1515 1517 1519 1522 1522 1523 1525 1528 1528 1530 1531 1533 1533 1534 1536 1537 1539 1541 1543 1544 1547 1548
1473 1475 1475 1479 1482 1483 1485 1489 1492 1493 1497 1499 1499 1499 1500 1504 1505 1506 1508 1511 1512 1513 1515 1518 1519 1519 1521 1522 1524 1525 1526 1528 1529 1530 1532 1533 1535 1534 1536 1539 1540 1543 1545
1476 1474 1476 1480 1482 1483 1485 1487 1491 1493 1496 1499 1499 1499 1500 1503 1503 1504 1507 1510 1509 1512 1513 1515 1517 1518 1517 1519 1520 1520 1523 1523 1526 1528 1529 1530 1530 1532 1534 1536 1537 1539 1540
1474 1477 1475 1478 1482 1483 1484 1485 1489 1492 1495 1497 1498 1497 1499 1501 1502 1504 1507 1508 1508 1509 1510 1512 1514 1516 1516 1516 1517 1520 1520 1521 1523 1524 1526 1528 1529 1529 1531 1534 1534 1537 1538
1476 1475 1478 1476 1479 1482 1483 1486 1489 1491 1494 1496 1497 1498 1499 1501 1502 1504 1505 1506 1507 1507 1508 1509 1512 1513 1514 1515 1515 1517 1518 1519 1520 1523 1524 1525 1527 1527 1528 1529 1530 1532 1534
1475 1473 1475 1476 1477 1480 1483 1486 1487 1490 1493 1494 1496 1497 1499 1501 1501 1503 1503 1504 1505 1506 1506 1507 1509 1510 1512 1512 1512 1515 1516 1517 1517 1519 1521 1522 1524 1523 1526 1525 1526 1528 1530
1475 1472 1473 1474 1477 1478 1482 1485 1488 1491 1492 1493 1495 1496 1498 1500 1501 1502 1502 1503 1504 1505 1504 1506 1508 1508 1509 1509 1510 1512 1513 1515 1515 1517 1517 1520 1520 1521 1523 1523 1523 1523 1525
1475 1473 1472 1473 1476 1478 1481 1485 1487 1489 1491 1493 1495 1497 1498 1499 1500 1501 1501 1501 1503 1504 1504 1504 1505 1506 1507 1508 1508 1508 1510 1512 1512 1514 1515 1515 1518 1519 1519 1521 1522 1523 1522
1478 1475 1475 1475 1475 1477 1480 1484 1487 1489 1491 1494 1496 1498 1498 1499 1499 1500 1500 1500 1501 1501 1501 1502 1503 1505 1505 1506 1505 1507 1508 1508 1510 1512 1512 1512 1514 1516 1517 1518 1520 1519 1520
1480 1478 1476 1476 1476 1477 1480 1485 1488 1490 1492 1493 1495 1496 1497 1498 1498 1498 1499 1499 1499 1499 1499 1500 1501 1502 1502 1503 1504 1504 1504 1506 1508 1509 1508 1509 1510 1512 1513 1513 1516 1516 1517
1483 1481 1479 1477 1477 1478 1482 1485 1487 1490 1491 1492 1493 1494 1495 1495 1496 1497 1497 1498 1498 1498 1498 1499 1499 1500 1500 1501 1501 1502 1502 1504 1504 1505 1505 1506 1506 1509 1510 1510 1510 1511 1514
1486 1484 1482 1481 1480 1482 1484 1486 1487 1489 1490 1491 1492 1493 1494 1495 1495 1495 1496 1496 1496 1496 1497 1498 1498 1498 1498 1498 1499 1499 1498 1500 1501 1501 1501 1502 1503 1504 1506 1507 1505 1506 1508
1487 1486 1485 1484 1483 1484 1485 1486 1487 1488 1489 1489 1490 1491 1491 1492 1493 1494 1494 1494 1494 1495 1495 1496 1496 1496 1496 1496 1496 1495 1496 1496 1497 1498 1498 1500 1499 1499 1498 1503 1500 1501 1502
1488 1487 1485 1485 1485 1485 1485 1485 1486 1487 1487 1487 1488 1489 1489 1490 1490 1490 1490 1491 1492 1493 1493 1493 1494 1493 1493 1493 1493 1493 1493 1493 1494 1494 1495 1495 1495 1492 1494 1496 1495 1496 1496
1488 1487 1486 1485 1484 1484 1484 1484 1483 1483 1484 1484 1485 1485 1485 1485 1485 1485 1486 1487 1488 1489 1490 1491 1491 1490 1490 1490 1490 1490 1490 1490 1490 1491 1491 1490 1488 1488 1490 1490 1490 1491 1491
1487 1486 1485 1484 1483 1482 1481 1481 1481 1481 1481 1481 1481 1481 1481 1481 1481 1480 1481 1482 1483 1485 1486 1487 1488 1488 1487 1488 1487 1487 1487 1487 1487 1487 1486 1485 1484 1485 1485 1485 1486 1487 1486
1486 1484 1482 1481 1480 1480 1479 1478 1477 1476 1476 1476 1476 1476 1476 1475 1475 1475 1475 1476 1478 1479 1481 1482 1483 1484 1484 1484 1484 1484 1484 1483 1483 1482 1481 1480 1481 1481 1480 1480 1480 1480 1481
1484 1482 1480 1478 1477 1476 1475 1474 1473 1472 1471 1470 1470 1470 1470 1470 1469 1469 1469 1470 1471 1473 1475 1477 1478 1479 1480 1479 1479 1479 1479 1479 1478 1477 1477 1476 1476 1476 1476 1475 1474 1473 1473
1480 1479 1476 1474 1472 1471 1470 1469 1468 1467 1466 1465 1464 1464 1464 1463 1463 1463 1464 1465 1465 1467 1469 1471 1472 1474 1475 1475 1475 1475 1475 1474 1473 1472 1472 1472 1472 1471 1471 1471 1468 1467 1465
1477 1474 1472 1469 1467 1466 1465 1464 1463 1462 1461 1461 1460 1459 1457 1457 1457 1457 1458 1459 1459 1461 1463 1465 1466 1468 1470 1470 1470 1470 1470 1469 1468 1467 1467 1467 1466 1467 1467 1465 1463 1461 1459
1471 1470 1467 1465 1463 1461 1460 1458 1457 1456 1456 1455 1454 1453 1452 1450 1450 1450 1451 1452 1452 1454 1456 1458 1459 1462 1463 1464 1464 1465 1464 1463 1462 1461 1461 1461 1460 1460 1460 1459 1457 1455 1453
1466 1464 1461 1459 1457 1456 1455 1453 1451 1451 1450 1449 1448 1447 1446 1445 1443 1443 1444 1444 1446 1447 1449 1450 1452 1454 1456 1458 1459 1459 1459 1459 1457 1456 1456 1455 1455 1454 1453 1453 1452 1450 1447
1461 1459 1456 1454 1452 1451 1449 1447 1445 1444 1442 1441 1439 1439 1438 1438 1437 1436 1437 1437 1438 1440 1441 1443 1445 1448 1451 1452 1453 1454 1455 1455 1454 1452 1451 1452 1451 1450 1449 1448 1446 1443 1442
1457 1454 1452 1449 1447 1445 1443 1441 1439 1437 1435 1433 1432 1431 1430 1430 1431 1429 1429 1430 1431 1432 1434 1436 1439 1442 1445 1447 1448 1449 1450 1450 1450 1449 1448 1448 1447 1447 1445 1444 1442 1440 1437
1453 1451 1448 1445 1443 1440 1437 1435 1432 1429 1427 1425 1424 1424 1423 1423 1423 1423 1422 1423 1424 1426 1428 1430 1433 1436 1439 1442 1443 1444 1445 1446 1446 1445 1446 1445 1444 1443 1442 1440 1438 1437 1435
1448 1446 1444 1441 1438 1435 1432 1429 1426 1423 1420 1418 1417 1417 1417 1416 1416 1416 1417 1416 1417 1419 1421 1424 1428 1431 1434 1437 1439 1439 1441 1441 1442 1441 1441 1441 1441 1439 1438 1436 1435 1433 1431